sat.trackr.live / text

‹ back to catalog

STARLINK-35949

NORAD 66630 · 2025-271P

PAYLOAD ACTIVE UNKNOWN

§ Identity

Operator
Country
US
Launch date
2025-11-23
Launch site
AFWTR
Launch vehicle
Mass (kg)
RCS (m²)

Purposes: comms

External: N2YO · Heavens-Above · Gunter

§ Orbital elements

Epoch: 2026-05-24T23:58:08.818752Z

Period
93.85 min
Inclination
53.1590°
Eccentricity
0.0000994
Mean motion
15.34392523 rev/d
Perigee alt
462.0 km
Apogee alt
463.4 km
Semi-major
6,840.9 km
B*
8.1695e-4
RAAN
143.8021°
Arg perigee
80.0833°
Mean anomaly
280.0282°
Rev number
2,927

§ Raw data

STARLINK-359491 66630U 25271P   26144.99871318  .00027320  00000+0  81695-3 0  99962 66630  53.1590 143.8021 0000994  80.0833 280.0282 15.34392523 29278

JSON: /api/v1/satellites/66630 · /tle

For live sub-satellite position, see the globe view (requires WebGL).

§ Visibility from observer

Set your observer location to see the next 7 days of passes ≥ 10°. The values pass through the URL so the page stays shareable.

No JS? Fill the form by hand. The geolocation button needs JavaScript.